GFSGBSN_925_temp_075.txt.gz
Temp
7 7 7 7 7 7 7 7 7 7 7 7 6 6 6 6 6 6 6 7 6 6 6 7 6 6 7 8 9 18 17 17 18 17 16 16 16 17 16 16 16 16 18 19 19 19 19
7 7 7 7 7 7 7 6 7 7 7 6 6 6 6 6 6 6 6 7 7 7 7 7 6 6 8 6 15 16 16 17 18 17 17 17 17 17 17 17 16 18 18 19 19 19 20
7 7 7 7 7 7 7 7 7 7 6 6 6 6 6 6 6 6 6 7 8 10 9 7 6 6 8 8 15 15 15 15 16 17 17 18 19 18 18 17 18 18 17 18 19 19 19
7 7 7 7 7 7 7 7 7 7 6 6 6 6 6 6 6 6 7 8 10 11 10 9 6 7 8 12 13 14 15 16 17 17 17 19 19 17 17 17 17 18 18 17 20 19 20
6 6 6 6 6 6 6 6 6 6 6 6 6 6 6 6 6 6 7 10 11 10 10 9 7 8 9 13 13 17 16 16 18 18 18 19 18 16 17 16 15 16 16 16 18 20 20
6 6 6 6 6 6 6 6 6 6 6 6 6 6 6 6 6 6 9 11 12 10 9 8 9 9 10 15 16 16 17 17 17 18 17 17 14 14 13 13 14 15 15 16 17 19 20
6 6 6 6 6 6 6 6 6 6 6 6 6 6 6 6 6 7 8 9 9 10 11 11 12 12 13 14 15 16 16 17 17 16 14 16 13 12 13 14 15 16 16 15 16 18 18
6 6 5 5 5 5 5 5 5 6 6 6 6 6 6 6 6 7 8 8 8 7 7 11 11 11 12 13 12 15 16 16 16 14 14 14 12 14 14 15 15 15 15 15 17 18 19
5 5 5 5 5 5 5 5 5 6 6 5 5 5 6 6 6 7 5 7 7 7 7 10 12 12 12 12 12 13 15 14 14 14 13 12 14 15 15 14 15 15 15 16 16 18 19
5 5 5 5 5 5 5 5 5 6 6 5 5 5 5 6 6 5 6 7 8 7 6 11 12 13 13 13 11 14 15 15 15 14 13 13 14 15 14 14 15 14 16 17 16 16 16
4 4 4 4 4 4 5 5 5 5 5 5 5 5 5 5 5 4 6 7 8 9 9 16 16 16 15 14 16 15 16 16 14 14 14 14 13 13 13 15 15 14 16 15 15 15 15
4 4 4 4 4 4 4 4 4 4 5 4 5 5 5 5 5 6 6 7 8 7 9 15 17 15 15 16 17 16 16 17 15 14 14 13 14 14 14 15 15 16 14 14 15 15 14
3 4 4 4 4 3 4 4 4 4 4 4 4 4 4 4 4 5 5 5 7 8 13 14 14 14 15 15 16 15 14 14 13 13 12 13 13 13 14 14 14 15 13 14 14 14 15
3 3 3 3 3 3 3 3 3 4 4 4 4 5 5 5 6 5 5 6 6 10 12 13 13 12 14 16 15 15 13 12 13 13 12 12 13 12 13 14 13 14 13 14 14 14 15
3 3 3 3 3 3 3 3 3 3 3 3 4 5 4 5 5 5 4 4 7 9 11 10 12 14 15 15 14 15 13 12 13 12 13 12 13 14 14 15 14 13 12 14 13 13 13
3 3 3 3 3 3 3 3 3 3 3 3 4 3 3 5 5 6 5 5 6 9 9 10 10 11 11 12 13 13 13 15 14 13 14 14 13 15 15 15 15 14 15 13 13 14 14
3 3 3 3 3 3 3 3 3 3 3 3 3 1 4 5 6 5 4 4 7 9 9 8 9 9 8 11 13 13 14 14 15 14 14 14 14 14 15 13 13 13 13 13 13 14 15
3 3 3 2 3 3 2 2 3 3 3 3 2 -1 5 6 4 3 2 5 8 8 8 8 9 10 8 8 12 12 13 14 13 15 14 13 12 12 13 15 15 14 14 12 13 14 13
2 2 2 2 3 2 2 2 3 3 3 3 1 1 4 6 1 2 4 5 6 7 7 8 9 9 10 7 8 11 13 14 14 14 13 14 12 11 14 14 15 14 14 13 13 13 13
3 2 2 2 2 2 2 2 2 3 3 3 2 -2 -0 1 1 1 1 4 6 7 7 7 8 9 9 8 9 11 10 14 14 13 12 13 11 12 11 12 13 12 14 14 13 13 13
2 2 2 2 2 2 2 3 2 2 3 2 2 0 1 -2 4 4 4 4 4 5 8 8 8 8 9 8 10 9 12 13 12 12 11 11 11 11 11 12 12 13 13 14 12 12 13
2 2 2 2 2 2 2 2 2 2 2 2 2 1 2 2 3 2 4 4 5 5 5 7 7 8 7 7 10 10 12 12 12 12 11 11 10 10 10 12 12 12 13 14 15 14 13
2 2 2 2 2 2 2 2 2 2 2 1 1 1 1 2 2 0 -0 4 5 6 6 7 6 6 6 7 9 8 8 10 11 11 11 11 10 9 9 10 10 11 13 14 15 15 15
2 2 2 2 2 2 2 3 3 3 2 2 1 1 1 1 2 3 4 4 4 5 6 6 6 5 8 9 8 9 10 10 10 10 10 10 10 8 8 9 10 14 15 15 15 16 15
2 2 2 2 2 2 2 2 3 3 2 2 2 2 1 1 3 3 3 4 5 5 5 6 6 8 7 7 7 9 8 10 10 10 9 9 9 7 8 8 11 13 15 14 14 14 14
2 2 2 2 2 2 2 2 2 2 2 2 2 2 1 1 1 4 3 4 4 4 5 4 5 6 6 6 6 8 8 10 10 11 10 8 9 8 7 8 9 13 14 15 15 13 14
2 2 2 2 2 2 2 2 2 2 2 2 1 1 1 2 2 3 3 3 4 4 4 4 4 6 6 5 6 6 8 10 9 10 9 7 7 8 7 8 9 12 13 14 12 12 13
2 1 1 1 1 2 2 2 2 2 2 2 1 1 1 1 1 4 4 3 4 3 4 5 5 5 5 5 6 7 6 8 9 9 9 9 8 6 7 8 8 11 12 13 12 10 10
1 1 1 1 2 2 2 2 2 2 2 2 1 1 1 1 0 3 3 4 4 4 4 4 4 4 4 5 6 6 4 3 7 7 10 6 8 9 8 9 9 8 9 9 9 9 8

GFSGBSN_925_temp_078.txt.gz
Temp
7 7 7 7 7 7 7 7 6 7 7 7 6 6 6 6 6 6 6 6 6 6 6 6 6 6 7 7 9 16 16 16 16 16 15 15 15 15 15 15 16 15 16 17 18 18 17
7 7 7 7 7 7 6 6 7 7 7 6 6 6 6 6 6 6 6 6 7 9 8 7 6 6 7 7 14 15 15 16 16 15 16 15 16 16 16 16 16 17 17 17 17 17 18
7 7 7 7 7 7 7 7 7 7 6 6 6 6 6 6 6 6 6 7 9 10 10 9 6 6 8 9 15 14 14 15 16 16 15 17 17 17 16 17 17 17 16 16 16 17 17
7 7 7 7 7 7 7 7 7 6 6 6 6 6 6 6 6 6 7 9 10 9 11 10 7 7 8 12 12 13 14 14 16 15 16 18 18 17 16 16 16 16 16 15 18 18 18
7 7 7 6 6 6 6 6 6 6 6 6 6 5 6 6 6 6 8 10 10 9 10 8 7 8 9 12 12 15 14 14 16 15 16 17 16 16 16 15 13 14 13 15 16 19 18
7 6 6 6 6 6 6 6 6 6 6 6 5 5 6 6 6 6 9 11 11 9 8 9 8 8 11 14 15 15 16 15 16 16 16 16 13 13 12 12 12 13 14 14 14 17 17
6 6 6 6 6 6 6 6 6 6 6 5 5 5 5 6 6 7 9 9 7 8 7 9 10 10 12 14 15 15 16 16 16 16 14 15 13 12 12 13 14 15 14 13 15 16 16
6 6 6 6 6 5 5 6 5 6 6 6 5 5 5 6 6 7 8 7 6 5 5 8 9 10 11 13 11 14 15 15 15 14 14 14 12 13 13 14 14 13 13 13 15 16 16
5 5 5 5 5 5 5 5 5 5 5 6 5 5 6 5 6 7 5 5 5 5 5 9 11 11 12 12 10 12 14 15 14 13 13 12 14 14 14 14 13 13 13 13 14 16 16
5 5 5 5 4 5 5 5 5 5 5 5 5 5 5 5 6 5 6 6 7 5 6 10 12 12 13 12 10 13 14 15 14 14 13 13 14 14 14 14 13 12 14 15 15 14 14
4 4 4 4 4 4 4 4 4 4 4 5 5 5 5 5 5 4 5 6 7 7 9 15 14 14 13 12 15 13 15 15 13 14 13 14 13 13 13 14 14 14 15 14 14 13 13
4 4 4 4 4 4 4 4 4 4 4 4 5 5 5 5 4 5 5 7 7 7 9 12 15 14 14 15 15 15 15 16 15 14 13 14 13 13 14 14 14 15 14 14 13 13 13
4 4 4 3 3 3 3 3 4 4 4 4 5 5 5 4 4 5 5 5 6 7 11 11 11 12 12 13 15 15 14 14 13 13 12 13 13 13 14 14 14 13 13 12 13 13 14
3 3 4 3 3 3 3 3 3 3 3 4 5 5 5 5 4 5 5 5 6 9 10 10 10 11 12 13 14 14 13 12 13 13 11 12 13 12 13 13 13 12 13 12 14 14 13
3 3 3 3 3 3 3 3 3 3 3 4 4 5 5 4 5 5 2 2 7 7 8 8 9 10 11 11 11 12 12 12 12 12 13 12 13 13 13 14 14 13 13 13 13 13 14
3 3 3 3 3 3 3 3 3 3 3 3 4 3 4 4 5 5 1 5 6 8 8 8 8 9 8 8 9 10 12 14 14 12 14 14 13 14 14 14 14 14 14 13 12 13 14
3 3 3 3 3 3 2 2 3 3 3 3 3 1 4 4 4 1 -1 3 5 8 7 6 7 7 8 8 8 9 13 13 12 13 14 13 14 14 14 13 12 13 13 12 13 13 13
3 3 3 3 2 2 3 2 2 3 3 3 1 -2 4 4 1 3 0 5 7 6 7 7 7 7 8 8 8 8 9 11 11 11 13 13 12 12 13 14 14 14 13 12 13 13 13
2 3 2 2 2 2 2 2 3 3 3 3 0 -0 4 5 -1 2 4 5 6 6 6 7 7 8 8 8 7 8 8 10 11 9 11 13 11 12 13 13 14 12 13 13 12 12 12
3 2 2 2 2 2 3 2 2 3 3 3 1 -2 -0 2 1 2 1 3 5 6 6 6 7 7 7 7 8 8 7 8 10 12 12 13 11 12 11 12 12 11 13 13 12 12 13
2 2 2 2 2 2 2 2 3 3 2 2 2 -0 1 -2 2 3 4 4 3 4 6 6 6 7 7 7 8 7 7 7 9 12 11 11 11 11 11 11 11 11 11 12 12 12 12
2 2 2 2 2 3 2 2 2 2 2 2 1 -0 0 1 2 2 3 4 4 5 5 5 5 6 5 6 8 7 9 8 9 11 10 10 9 10 11 11 11 11 12 12 12 13 13
2 2 2 2 2 2 2 2 2 2 2 1 1 1 0 2 2 -1 -1 3 4 4 4 6 6 5 5 6 7 7 9 8 8 10 10 10 9 9 10 10 10 10 12 12 12 13 14
2 2 2 2 2 2 2 2 3 2 2 2 2 1 -0 1 2 3 3 3 3 3 3 5 6 5 6 8 7 7 7 8 8 9 9 9 9 8 8 9 8 12 13 13 13 14 14
2 2 2 2 2 2 2 2 3 3 2 2 2 1 -1 -1 3 3 3 3 3 3 3 4 6 5 4 5 7 7 8 9 9 9 9 9 8 7 7 8 10 11 13 12 12 13 14
1 2 2 2 2 2 2 2 2 3 2 2 2 2 1 -0 1 4 3 3 2 2 3 3 5 4 5 5 6 8 8 10 10 9 8 7 8 8 7 8 7 11 12 12 12 11 13
1 2 2 2 2 2 2 2 2 2 2 2 2 1 1 1 1 3 2 2 3 3 3 4 3 4 5 5 7 7 7 9 8 10 9 7 7 8 7 7 8 10 10 11 11 11 10
2 2 2 2 2 2 1 1 2 2 2 2 2 1 1 1 1 3 3 3 3 3 2 3 3 4 4 6 6 7 6 7 8 9 9 8 7 6 7 7 7 9 10 10 9 8 7
2 2 2 1 1 1 1 1 2 2 2 2 2 2 1 0 2 2 3 4 4 4 3 3 4 4 4 4 5 6 6 4 7 7 8 6 7 7 8 8 7 7 7 7 8 7 6

GFSGBSN_925_temp_084.txt.gz
Temp
8 7 7 7 7 7 7 7 7 7 7 7 6 6 6 6 6 6 6 7 7 6 8 8 8 7 9 15 18 14 15 15 15 16 18 21 21 22 21 22 23 21 23 24 23 23 23
7 7 7 7 7 7 7 7 7 7 7 6 6 6 6 6 6 6 6 7 8 9 10 9 7 6 10 15 15 14 14 15 17 17 19 20 21 22 21 21 22 23 22 22 23 22 23
7 7 7 7 7 7 7 7 7 6 6 6 6 6 6 6 7 7 7 7 9 9 10 10 8 8 11 15 14 14 14 15 16 17 19 19 20 20 21 20 22 21 20 22 23 23 22
7 7 7 7 7 7 7 7 6 6 6 6 6 6 6 6 6 7 7 8 9 10 10 10 7 9 13 14 14 14 15 15 15 16 16 18 19 20 20 21 19 19 20 20 23 23 22
7 7 7 7 7 7 7 6 6 6 6 6 6 5 5 5 6 7 8 8 9 9 9 8 9 11 15 14 15 16 15 17 16 15 16 17 19 19 19 19 19 19 19 21 21 23 23
7 7 6 6 6 6 6 6 6 6 6 6 6 6 5 6 6 7 8 9 9 8 8 9 10 11 15 17 17 16 16 16 18 17 17 17 19 18 19 19 19 19 18 20 20 22 21
7 6 6 6 6 6 6 6 6 6 6 6 5 5 5 5 6 7 8 10 14 13 12 14 15 14 15 16 15 17 17 17 18 18 18 18 18 18 19 18 19 19 19 18 20 21 20
6 6 6 6 6 6 6 6 5 5 5 5 5 5 5 6 7 7 9 10 7 7 10 11 12 12 12 12 13 16 16 17 18 18 18 17 17 20 20 18 18 18 18 19 20 20 19
6 6 6 6 5 5 5 5 5 5 5 5 5 5 6 6 7 7 7 6 5 6 10 13 14 14 15 13 14 15 16 18 18 18 18 18 19 19 18 18 17 18 18 18 19 19 20
5 6 6 5 5 5 5 5 5 5 5 5 5 5 6 6 7 6 9 6 6 5 14 16 16 15 16 15 14 16 15 17 17 17 18 18 19 17 17 17 18 17 19 18 18 18 19
5 5 5 5 5 5 5 4 4 4 4 4 5 5 5 6 6 9 7 6 6 7 16 16 16 16 18 15 16 16 15 15 16 17 16 17 16 17 17 17 18 18 18 18 18 18 18
5 5 4 4 4 4 4 4 4 4 4 4 4 5 5 6 6 6 5 5 7 14 15 15 15 14 16 17 17 17 16 16 17 16 17 17 17 17 18 18 18 18 17 17 18 18 16
5 4 4 4 4 4 3 3 4 4 4 4 4 5 5 5 8 5 5 10 14 15 15 13 12 13 14 15 16 16 16 16 17 15 16 17 17 18 17 17 17 17 17 17 17 16 19
4 4 4 4 3 3 3 3 3 4 4 4 5 5 5 4 4 4 8 13 14 11 11 12 12 13 14 13 15 15 16 17 17 17 17 17 16 17 17 17 18 17 18 18 17 19 20
3 4 4 3 3 3 3 3 3 4 4 4 5 5 5 4 5 6 11 13 13 10 10 10 12 12 14 13 13 14 15 15 17 17 15 16 16 16 16 17 18 16 16 18 16 17 17
3 4 4 3 3 3 3 3 3 3 3 4 5 6 6 4 5 8 11 10 10 10 9 10 10 11 11 12 12 13 14 12 10 12 12 16 16 17 16 16 17 17 18 14 16 16 17
3 3 3 3 3 3 3 3 3 3 4 4 6 9 6 5 5 10 9 9 9 9 9 9 9 9 10 10 11 12 13 13 9 10 10 16 17 16 16 15 17 15 14 14 14 15 17
3 3 3 3 3 3 2 3 3 4 4 4 6 7 5 5 8 8 8 8 7 9 9 9 9 9 9 10 10 10 11 12 10 8 9 14 15 16 16 16 18 17 16 16 16 15 15
3 3 3 3 2 2 2 3 3 4 4 4 6 7 6 6 6 7 7 7 8 8 8 9 9 10 10 9 8 10 11 12 11 8 7 7 14 15 15 16 16 16 15 14 14 14 15
3 2 3 3 3 3 2 3 3 3 3 4 6 5 7 7 7 7 5 6 7 8 8 8 9 9 9 9 10 9 10 12 9 9 8 7 11 15 16 16 17 15 16 16 15 14 15
3 3 3 3 3 3 3 3 3 3 3 4 5 5 5 5 6 7 7 6 6 7 8 8 9 7 7 7 9 9 10 8 10 9 5 8 11 13 15 15 16 16 16 16 16 16 15
3 2 2 3 3 3 2 2 2 3 3 5 4 6 6 7 6 6 6 7 7 7 6 7 7 8 8 7 8 8 9 8 8 7 6 7 10 9 10 14 15 15 16 16 16 16 17
2 2 2 2 3 3 3 2 2 3 3 4 2 3 7 5 6 6 6 6 6 6 7 7 7 7 7 8 8 8 8 7 6 6 7 8 11 10 10 14 14 14 15 16 16 16 17
2 2 2 2 2 3 2 2 2 2 3 4 3 5 5 6 7 7 6 6 6 6 6 7 7 6 8 9 8 9 10 9 9 8 8 8 10 13 13 13 13 15 16 16 16 16 14
2 2 2 2 2 2 2 2 2 2 2 3 2 5 5 5 6 6 6 6 7 7 6 7 8 8 9 6 5 9 10 9 10 9 10 11 11 12 12 13 15 15 14 14 14 14 13
2 2 2 2 2 2 2 3 2 2 2 3 3 3 5 5 6 6 6 6 6 7 7 6 8 8 6 4 6 8 10 11 11 10 11 12 12 12 12 11 12 13 14 14 14 14 13
2 2 2 2 2 2 2 2 2 2 2 2 2 2 2 3 6 5 5 5 6 6 6 7 6 6 5 5 7 7 9 12 11 11 11 11 12 12 12 12 13 12 13 14 13 11 10
1 1 2 2 2 2 2 2 2 2 2 2 2 2 1 3 6 5 6 4 5 5 5 7 6 5 5 6 7 8 10 11 11 12 12 12 12 12 13 12 11 10 13 12 9 9 7
1 1 2 2 2 2 2 2 2 2 2 2 3 2 1 1 3 3 3 4 5 6 5 6 5 3 4 5 6 7 9 10 10 11 12 10 9 11 13 11 8 7 7 7 6 6 5

GFSGBSN_925_temp_087.txt.gz
Temp
9 8 8 8 7 7 7 7 7 7 7 7 7 6 6 6 6 6 7 7 7 7 9 10 9 7 10 17 20 17 17 16 16 17 20 23 23 23 24 25 26 25 26 27 27 27 26
8 8 7 7 8 7 7 7 7 7 7 7 6 6 7 6 6 6 7 8 8 9 10 10 8 7 10 17 19 18 17 18 19 20 21 23 24 25 24 25 25 26 26 25 26 26 27
8 8 7 7 7 7 7 7 7 7 7 7 6 6 6 6 6 6 7 8 9 10 10 10 9 8 15 18 18 18 18 18 20 20 22 22 23 23 24 23 24 24 23 24 25 26 25
7 7 7 7 7 7 7 7 7 6 6 6 6 6 6 6 6 7 7 8 10 10 10 11 10 11 16 18 17 18 18 19 18 19 20 21 21 22 22 23 22 21 22 22 26 27 26
7 7 7 7 7 7 7 7 6 6 6 6 6 6 6 6 6 7 8 9 10 9 9 10 11 14 18 16 18 19 18 20 20 19 19 20 21 21 22 21 21 22 21 23 25 25 25
7 7 7 7 6 7 7 6 6 6 6 6 6 6 6 6 6 7 9 10 10 9 9 11 13 14 18 20 19 18 19 19 20 20 20 20 21 20 21 22 20 22 23 24 23 26 25
7 6 6 6 6 6 6 6 6 6 6 6 6 6 6 6 7 8 9 12 14 14 14 17 18 17 18 19 18 19 20 20 20 20 19 20 20 20 21 21 22 22 22 22 24 25 23
6 6 6 6 6 6 6 6 6 6 6 6 6 6 6 6 7 9 10 15 12 10 14 17 16 16 16 16 17 19 19 19 20 19 21 21 19 21 22 22 21 20 20 21 23 24 23
6 6 6 6 6 6 6 6 5 5 5 5 5 6 6 6 8 9 11 10 9 10 14 17 18 18 18 17 18 19 19 19 19 20 20 20 22 22 21 21 20 20 19 21 21 22 23
6 6 6 6 6 5 5 5 5 5 5 5 5 6 6 7 8 10 12 10 9 9 16 18 18 18 19 19 18 19 19 19 20 19 20 21 22 21 19 20 21 20 22 21 20 20 20
6 6 6 5 5 5 5 5 5 5 5 5 5 6 6 7 9 13 11 9 9 9 18 19 18 18 20 19 19 19 19 19 18 20 19 20 20 19 19 20 20 20 21 20 20 20 20
5 5 5 5 4 4 5 5 4 4 4 5 5 6 6 8 9 10 9 8 10 15 17 17 18 17 18 19 20 20 19 19 19 18 20 20 21 20 20 20 20 21 19 19 19 20 19
4 4 4 4 4 4 4 4 4 4 4 5 5 5 6 8 11 8 8 12 15 16 18 16 16 16 17 18 18 18 19 19 19 18 18 19 20 21 20 19 20 19 18 17 18 18 18
4 4 4 4 4 4 3 4 4 4 4 5 5 5 7 8 7 7 10 14 15 16 16 16 15 16 17 17 17 18 18 19 21 20 19 19 19 21 21 19 19 19 19 18 18 19 20
4 4 4 4 3 3 3 3 4 4 4 5 5 7 9 8 7 8 13 15 16 15 14 13 15 16 17 16 15 16 17 18 18 16 14 17 19 20 20 20 19 19 18 20 19 20 19
4 4 4 3 3 3 3 3 3 3 4 5 8 10 10 7 7 10 14 13 14 13 12 13 13 14 14 15 14 16 16 17 14 14 14 16 16 19 19 19 19 20 19 16 17 17 18
4 4 4 3 3 3 3 3 3 3 4 5 8 12 8 7 8 13 11 13 12 12 12 12 12 12 13 12 13 14 14 15 14 13 13 14 15 18 19 17 18 18 17 17 18 18 18
3 4 3 3 3 3 3 3 3 3 4 5 9 10 8 8 12 12 13 12 8 11 12 12 11 12 12 12 12 13 13 15 13 13 12 10 10 15 17 19 19 17 18 18 16 18 19
3 3 3 3 3 3 3 3 3 4 4 8 11 11 8 8 9 12 10 11 11 11 11 11 11 12 12 12 11 13 13 15 14 12 10 9 11 13 17 17 18 18 17 17 17 17 16
3 3 3 3 3 3 3 3 3 3 4 6 10 8 11 12 11 10 9 9 10 10 11 11 11 12 11 11 12 11 11 13 12 13 9 7 9 12 16 16 17 18 18 18 17 16 17
3 3 3 3 3 3 3 3 3 3 4 5 9 9 10 8 10 10 10 9 9 9 11 11 11 10 9 9 11 11 11 12 13 9 7 7 8 10 15 15 15 16 16 17 17 17 17
3 3 3 3 3 3 3 3 3 4 5 8 5 10 10 9 9 9 7 10 9 10 9 10 10 11 11 9 10 10 11 11 10 10 8 8 9 8 14 17 17 17 18 18 18 18 18
3 3 3 3 3 3 3 3 3 4 4 8 6 8 10 8 10 9 9 9 9 9 9 10 10 9 9 10 11 11 11 11 10 9 8 7 8 10 12 14 16 15 17 18 18 19 18
2 2 2 2 3 3 3 3 3 3 4 7 8 9 9 9 11 10 9 9 8 9 8 9 10 9 10 12 11 11 11 11 11 10 10 8 8 9 12 13 12 15 18 18 18 16 16
2 2 2 2 3 3 3 2 3 3 4 6 6 8 8 9 10 9 9 9 9 10 9 10 10 10 11 9 7 10 12 11 12 12 11 9 8 12 12 10 14 16 16 16 16 14 14
2 2 2 3 2 3 3 2 2 3 3 4 6 5 7 7 10 9 9 9 8 8 9 9 10 10 9 6 6 8 10 12 12 12 13 12 12 11 14 13 13 12 16 16 16 14 12
2 2 2 2 2 2 3 3 2 3 3 3 4 4 6 5 10 8 8 7 8 8 7 9 8 8 8 7 7 8 10 13 12 12 11 12 13 12 13 14 15 13 15 16 14 11 10
2 2 2 2 2 2 2 2 2 2 3 3 4 4 4 5 8 9 8 6 7 7 7 8 8 6 7 6 8 9 9 12 13 13 13 13 13 13 14 14 13 11 14 12 9 9 7
2 2 2 2 2 2 2 2 2 2 3 3 4 3 3 2 6 5 5 6 6 6 6 8 6 4 5 6 7 8 9 11 11 12 13 11 11 11 11 10 9 8 7 7 6 4 5